Tracking 31027 objects as of 19-Jul-2025
HD Live streaming from Space Station
objects crossing your sky now

STARLINK-2603

Track STARLINK-2603 now!
10-day predictions
STARLINK-2603 is classified as:


NORAD ID: 48375
Int'l Code: 2021-038Y
Perigee: 553.5 km
Apogee: 555.2 km
Inclination: 53.1 °
Period: 95.6 minutes
Semi major axis: 6925 km
RCS: Unknown
Launch date: May 4, 2021
Source: United States (US)
Launch site: AIR FORCE EASTERN TEST RANGE (AFETR)
Your satellite tracking list
FLOCK 3S 1
Track 1 satellite(s)




NASA's NSSDC Master Catalog

Two Line Element Set (TLE):
1 48375U 21038Y   25198.34804831  .00003084  00000-0  22583-3 0  9995
2 48375  53.0553 328.1120 0001253  89.5275 270.5857 15.06404310232289
Source of the keplerian elements: AFSPC